| time (UTC) | temp F | wind direction | speed MPH | gust MPH | rain 1hr in | rain 24hr in | rain mn in | humidity % | barometer mb |
| 20260510060546 | 52 | 138 | 3.0 | 0.0 | 0.00 | 0.00 | 0.00 | 43 | 1013.6 |
| 20260510060030 | 52 | 175 | 3.0 | 0.0 | 0.00 | 0.00 | 0.00 | 46 | 1013.8 |
| 20260510055543 | 51 | 135 | 2.0 | 0.0 | 0.00 | 0.00 | 0.00 | 47 | 1013.8 |
| 20260510055023 | 50 | 138 | 2.0 | 0.0 | 0.00 | 0.00 | 0.00 | 45 | 1013.8 |
| 20260510054610 | 50 | 131 | 2.0 | 0.0 | 0.00 | 0.00 | 0.00 | 47 | 1013.8 |
| 20260510054028 | 49 | 135 | 3.0 | 0.0 | 0.00 | 0.00 | 0.00 | 46 | 1013.9 |
| 20260510053534 | 49 | 137 | 3.0 | 0.0 | 0.00 | 0.00 | 0.00 | 46 | 1013.9 |
| 20260510053034 | 49 | 152 | 3.0 | 0.0 | 0.00 | 0.00 | 0.00 | 48 | 1013.9 |
| 20260510052532 | 49 | 127 | 3.0 | 0.0 | 0.00 | 0.00 | 0.00 | 47 | 1014.1 |
| 20260510052037 | 48 | 138 | 3.0 | 0.0 | 0.00 | 0.00 | 0.00 | 47 | 1014.0 |
| 20260510051551 | 48 | 128 | 2.0 | 0.0 | 0.00 | 0.00 | 0.00 | 49 | 1014.3 |
| 20260510051033 | 47 | 138 | 2.0 | 0.0 | 0.00 | 0.00 | 0.00 | 51 | 1014.3 |
| 20260510050538 | 46 | 138 | 3.0 | 0.0 | 0.00 | 0.00 | 0.00 | 50 | 1014.3 |
| 20260510050059 | 45 | 125 | 3.0 | 0.0 | 0.00 | 0.00 | 0.00 | 54 | 1014.3 |
| 20260510045522 | 44 | 161 | 4.0 | 0.0 | 0.00 | 0.00 | 0.00 | 51 | 1014.4 |
| 20260510045027 | 44 | 134 | 4.0 | 0.0 | 0.00 | 0.00 | 0.00 | 50 | 1014.4 |
| 20260510044547 | 43 | 139 | 3.0 | 0.0 | 0.00 | 0.00 | 0.00 | 52 | 1014.4 |
| 20260510044030 | 43 | 128 | 3.0 | 0.0 | 0.00 | 0.00 | 0.00 | 52 | 1014.5 |
| 20260510043535 | 42 | 131 | 3.0 | 0.0 | 0.00 | 0.00 | 0.00 | 53 | 1014.5 |
| 20260510043037 | 42 | 131 | 2.0 | 0.0 | 0.00 | 0.00 | 0.00 | 53 | 1014.5 |
| 20260510042552 | 42 | 121 | 2.0 | 0.0 | 0.00 | 0.00 | 0.00 | 54 | 1014.7 |
| 20260510042035 | 42 | 122 | 2.0 | 0.0 | 0.00 | 0.00 | 0.00 | 56 | 1014.7 |
| 20260510041529 | 41 | 122 | 2.0 | 0.0 | 0.00 | 0.00 | 0.00 | 56 | 1014.9 |
| 20260510041031 | 41 | 121 | 3.0 | 0.0 | 0.00 | 0.00 | 0.00 | 57 | 1014.9 |
| 20260510040520 | 41 | 120 | 3.0 | 0.0 | 0.00 | 0.00 | 0.00 | 58 | 1014.9 |
| 20260510040031 | 40 | 134 | 3.0 | 0.0 | 0.00 | 0.00 | 0.00 | 60 | 1015.0 |
| 20260510035537 | 40 | 134 | 2.0 | 0.0 | 0.00 | 0.00 | 0.00 | 60 | 1015.0 |
| 20260510035025 | 39 | 137 | 2.0 | 0.0 | 0.00 | 0.00 | 0.00 | 62 | 1015.0 |
| 20260510034541 | 39 | 134 | 2.0 | 0.0 | 0.00 | 0.00 | 0.00 | 62 | 1015.0 |
| 20260510034024 | 38 | 138 | 1.0 | 0.0 | 0.00 | 0.00 | 0.00 | 64 | 1015.4 |
| 20260510033532 | 38 | 138 | 1.0 | 0.0 | 0.00 | 0.00 | 0.00 | 64 | 1015.4 |
| 20260510033021 | 38 | 138 | 2.0 | 0.0 | 0.00 | 0.00 | 0.00 | 64 | 1015.5 |
| 20260510032525 | 38 | 139 | 2.0 | 0.0 | 0.00 | 0.00 | 0.00 | 65 | 1015.5 |
| 20260510032043 | 38 | 155 | 2.0 | 0.0 | 0.00 | 0.00 | 0.00 | 66 | 1015.5 |
| 20260510031530 | 38 | 163 | 1.0 | 0.0 | 0.00 | 0.00 | 0.00 | 66 | 1015.9 |
| 20260510031027 | 38 | 163 | 1.0 | 0.0 | 0.00 | 0.00 | 0.00 | 66 | 1015.9 |
| 20260510030534 | 38 | 163 | 1.0 | 0.0 | 0.00 | 0.00 | 0.00 | 67 | 1015.9 |
| 20260510030025 | 37 | 163 | 1.0 | 0.0 | 0.00 | 0.00 | 0.00 | 67 | 1016.0 |
| 20260510025532 | 37 | 163 | 1.0 | 0.0 | 0.00 | 0.00 | 0.00 | 66 | 1016.0 |
| 20260510025038 | 37 | 163 | 1.0 | 0.0 | 0.00 | 0.00 | 0.00 | 67 | 1016.0 |
| 20260510024531 | 37 | 163 | 1.0 | 0.0 | 0.00 | 0.00 | 0.00 | 67 | 1016.1 |
| 20260510024039 | 37 | 194 | 1.0 | 0.0 | 0.00 | 0.00 | 0.00 | 67 | 1016.1 |
| 20260510023527 | 37 | 194 | 1.0 | 0.0 | 0.00 | 0.00 | 0.00 | 67 | 1016.1 |
| 20260510023027 | 37 | 194 | 2.0 | 0.0 | 0.00 | 0.00 | 0.00 | 67 | 1016.2 |
| 20260510022533 | 37 | 194 | 2.0 | 0.0 | 0.00 | 0.00 | 0.00 | 67 | 1016.2 |
| 20260510022044 | 37 | 196 | 1.0 | 0.0 | 0.00 | 0.00 | 0.00 | 66 | 1016.2 |
| 20260510021530 | 37 | 196 | 1.0 | 0.0 | 0.00 | 0.00 | 0.00 | 66 | 1016.5 |
| 20260510021035 | 38 | 196 | 2.0 | 0.0 | 0.00 | 0.00 | 0.00 | 65 | 1016.5 |
| 20260510020552 | 38 | 196 | 2.0 | 0.0 | 0.00 | 0.00 | 0.00 | 64 | 1016.5 |
| 20260510020100 | 38 | 196 | 1.0 | 0.0 | 0.00 | 0.00 | 0.00 | 64 | 1016.5 |
| 20260510015533 | 38 | 197 | 1.0 | 0.0 | 0.00 | 0.00 | 0.00 | 64 | 1016.6 |
| 20260510015022 | 38 | 197 | 1.0 | 0.0 | 0.00 | 0.00 | 0.00 | 64 | 1016.6 |
| 20260510014536 | 38 | 197 | 1.0 | 0.0 | 0.00 | 0.00 | 0.00 | 64 | 1016.6 |
| 20260510014039 | 38 | 197 | 1.0 | 0.0 | 0.00 | 0.00 | 0.00 | 64 | 1016.6 |
| 20260510013527 | 39 | 197 | 1.0 | 0.0 | 0.00 | 0.00 | 0.00 | 63 | 1016.6 |
| 20260510013035 | 39 | 197 | 1.0 | 0.0 | 0.00 | 0.00 | 0.00 | 63 | 1016.6 |
| 20260510012521 | 39 | 197 | 1.0 | 0.0 | 0.00 | 0.00 | 0.00 | 62 | 1016.8 |
| 20260510012036 | 39 | 197 | 1.0 | 0.0 | 0.00 | 0.00 | 0.00 | 61 | 1016.8 |
| 20260510011521 | 39 | 197 | 1.0 | 0.0 | 0.00 | 0.00 | 0.00 | 61 | 1017.0 |
| 20260510011028 | 39 | 197 | 1.0 | 0.0 | 0.00 | 0.00 | 0.00 | 61 | 1017.0 |
| 20260510010523 | 40 | 199 | 0.0 | 0.0 | 0.00 | 0.00 | 0.00 | 62 | 1017.0 |
| 20260510010026 | 40 | 199 | 0.0 | 0.0 | 0.00 | 0.00 | 0.00 | 62 | 1017.0 |
| 20260510005539 | 40 | 199 | 0.0 | 0.0 | 0.00 | 0.00 | 0.00 | 63 | 1017.0 |
| 20260510005026 | 40 | 199 | 0.0 | 0.0 | 0.00 | 0.00 | 0.00 | 63 | 1017.0 |
| 20260510004542 | 40 | 199 | 0.0 | 0.0 | 0.00 | 0.00 | 0.00 | 63 | 1017.0 |
| 20260510004027 | 40 | 199 | 0.0 | 0.0 | 0.00 | 0.00 | 0.00 | 63 | 1017.0 |
| 20260510003534 | 40 | 199 | 0.0 | 0.0 | 0.00 | 0.00 | 0.00 | 63 | 1017.0 |
| 20260510003020 | 40 | 199 | 1.0 | 0.0 | 0.00 | 0.00 | 0.00 | 63 | 1017.1 |
| 20260510002533 | 40 | 199 | 1.0 | 0.0 | 0.00 | 0.00 | 0.00 | 63 | 1017.1 |
| 20260510002034 | 40 | 199 | 1.0 | 0.0 | 0.00 | 0.00 | 0.00 | 63 | 1017.1 |
| 20260510001526 | 40 | 199 | 1.0 | 0.0 | 0.00 | 0.00 | 0.00 | 62 | 1017.1 |
| 20260510001047 | 40 | 199 | 1.0 | 0.0 | 0.00 | 0.00 | 0.00 | 61 | 1017.1 |
| 20260510000532 | 40 | 199 | 1.0 | 0.0 | 0.00 | 0.00 | 0.00 | 62 | 1017.1 |
| 20260510000026 | 40 | 199 | 2.0 | 0.0 | 0.00 | 0.00 | 0.00 | 63 | 1017.2 |
| 20260509235531 | 40 | 199 | 1.0 | 0.0 | 0.00 | 0.00 | 0.00 | 64 | 1017.2 |
| 20260509235020 | 40 | 199 | 2.0 | 0.0 | 0.00 | 0.00 | 0.00 | 63 | 1017.2 |
| 20260509234526 | 40 | 199 | 2.0 | 0.0 | 0.00 | 0.00 | 0.00 | 63 | 1017.5 |
| 20260509234031 | 40 | 199 | 2.0 | 0.0 | 0.00 | 0.00 | 0.00 | 63 | 1017.5 |
| 20260509233538 | 40 | 199 | 1.0 | 0.0 | 0.00 | 0.00 | 0.00 | 63 | 1017.5 |
| 20260509233027 | 40 | 199 | 1.0 | 0.0 | 0.00 | 0.00 | 0.00 | 63 | 1017.6 |
| 20260509232542 | 40 | 199 | 1.0 | 0.0 | 0.00 | 0.00 | 0.00 | 62 | 1017.6 |
| 20260509232049 | 40 | 199 | 1.0 | 0.0 | 0.00 | 0.00 | 0.00 | 61 | 1017.6 |
| 20260509231523 | 40 | 199 | 1.0 | 0.0 | 0.00 | 0.00 | 0.00 | 61 | 1017.7 |
| 20260509231031 | 40 | 199 | 2.0 | 0.0 | 0.00 | 0.00 | 0.00 | 60 | 1017.7 |
| 20260509230547 | 40 | 199 | 2.0 | 0.0 | 0.00 | 0.00 | 0.00 | 58 | 1017.7 |
| 20260509230031 | 40 | 199 | 2.0 | 0.0 | 0.00 | 0.00 | 0.00 | 58 | 1017.9 |
| 20260509225534 | 41 | 199 | 2.0 | 0.0 | 0.00 | 0.00 | 0.00 | 57 | 1017.9 |
| 20260509225048 | 41 | 199 | 2.0 | 0.0 | 0.00 | 0.00 | 0.00 | 57 | 1017.9 |
| 20260509224530 | 41 | 199 | 2.0 | 0.0 | 0.00 | 0.00 | 0.00 | 56 | 1018.1 |
| 20260509224047 | 41 | 199 | 2.0 | 0.0 | 0.00 | 0.00 | 0.00 | 56 | 1018.1 |
| 20260509223529 | 41 | 199 | 2.0 | 0.0 | 0.00 | 0.00 | 0.00 | 57 | 1018.1 |
| 20260509223035 | 41 | 199 | 2.0 | 0.0 | 0.00 | 0.00 | 0.00 | 57 | 1018.1 |
| 20260509222552 | 41 | 200 | 3.0 | 0.0 | 0.00 | 0.00 | 0.00 | 58 | 1018.2 |
| 20260509222036 | 40 | 200 | 3.0 | 0.0 | 0.00 | 0.00 | 0.00 | 59 | 1018.2 |
| 20260509221555 | 40 | 200 | 3.0 | 0.0 | 0.00 | 0.00 | 0.00 | 62 | 1018.2 |
| 20260509221035 | 39 | 203 | 2.0 | 0.0 | 0.00 | 0.00 | 0.00 | 64 | 1018.4 |
| 20260509220546 | 38 | 203 | 2.0 | 0.0 | 0.00 | 0.00 | 0.00 | 66 | 1018.4 |
| 20260509220056 | 38 | 203 | 1.0 | 0.0 | 0.00 | 0.00 | 0.00 | 66 | 1018.4 |
| 20260509215521 | 38 | 203 | 0.0 | 0.0 | 0.00 | 0.00 | 0.00 | 66 | 1018.5 |
| 20260509215031 | 39 | 203 | 0.0 | 0.0 | 0.00 | 0.00 | 0.00 | 64 | 1018.5 |
| 20260509214537 | 39 | 203 | 0.0 | 0.0 | 0.00 | 0.00 | 0.00 | 63 | 1018.5 |
| 20260509214023 | 39 | 203 | 0.0 | 0.0 | 0.00 | 0.00 | 0.00 | 62 | 1018.6 |
| 20260509213541 | 40 | 203 | 0.0 | 0.0 | 0.00 | 0.00 | 0.00 | 60 | 1018.6 |
| 20260509213025 | 40 | 203 | 0.0 | 0.0 | 0.00 | 0.00 | 0.00 | 59 | 1018.6 |
| 20260509212533 | 40 | 203 | 0.0 | 0.0 | 0.00 | 0.00 | 0.00 | 59 | 1018.6 |
| 20260509212030 | 40 | 203 | 0.0 | 0.0 | 0.00 | 0.00 | 0.00 | 58 | 1018.6 |
| 20260509211540 | 41 | 203 | 0.0 | 0.0 | 0.00 | 0.00 | 0.00 | 58 | 1018.6 |
| 20260509211028 | 41 | 203 | 0.0 | 0.0 | 0.00 | 0.00 | 0.00 | 58 | 1018.6 |
| 20260509210548 | 42 | 203 | 0.0 | 0.0 | 0.00 | 0.00 | 0.00 | 56 | 1018.6 |
| 20260509210033 | 42 | 203 | 0.0 | 0.0 | 0.00 | 0.00 | 0.00 | 56 | 1018.6 |
| 20260509205542 | 42 | 203 | 0.0 | 0.0 | 0.00 | 0.00 | 0.00 | 55 | 1018.6 |
| 20260509205032 | 42 | 203 | 0.0 | 0.0 | 0.00 | 0.00 | 0.00 | 55 | 1018.6 |
| 20260509204539 | 43 | 203 | 0.0 | 0.0 | 0.00 | 0.00 | 0.00 | 54 | 1018.6 |
| 20260509204026 | 43 | 203 | 0.0 | 0.0 | 0.00 | 0.00 | 0.00 | 53 | 1018.7 |
| 20260509203544 | 43 | 203 | 0.0 | 0.0 | 0.00 | 0.00 | 0.00 | 53 | 1018.7 |
| 20260509203053 | 43 | 203 | 0.0 | 0.0 | 0.00 | 0.00 | 0.00 | 52 | 1018.8 |
| 20260509202525 | 44 | 203 | 0.0 | 0.0 | 0.00 | 0.00 | 0.00 | 52 | 1018.8 |
| 20260509202027 | 44 | 203 | 0.0 | 0.0 | 0.00 | 0.00 | 0.00 | 51 | 1018.8 |
| 20260509201548 | 44 | 203 | 0.0 | 0.0 | 0.00 | 0.00 | 0.00 | 50 | 1018.8 |
| 20260509201037 | 44 | 203 | 0.0 | 0.0 | 0.00 | 0.00 | 0.00 | 50 | 1018.8 |
| 20260509200557 | 44 | 203 | 0.0 | 0.0 | 0.00 | 0.00 | 0.00 | 51 | 1018.8 |
| 20260509200023 | 44 | 203 | 0.0 | 0.0 | 0.00 | 0.00 | 0.00 | 50 | 1018.8 |
| 20260509195542 | 45 | 203 | 0.0 | 0.0 | 0.00 | 0.00 | 0.00 | 50 | 1018.8 |
| 20260509195029 | 45 | 203 | 0.0 | 0.0 | 0.00 | 0.00 | 0.00 | 50 | 1018.8 |
| 20260509194539 | 45 | 203 | 0.0 | 0.0 | 0.00 | 0.00 | 0.00 | 49 | 1018.8 |
| 20260509194023 | 46 | 203 | 0.0 | 0.0 | 0.00 | 0.00 | 0.00 | 49 | 1018.7 |
| 20260509193541 | 46 | 203 | 0.0 | 0.0 | 0.00 | 0.00 | 0.00 | 48 | 1018.7 |
| 20260509193030 | 46 | 203 | 0.0 | 0.0 | 0.00 | 0.00 | 0.00 | 47 | 1018.7 |
| 20260509192537 | 47 | 203 | 0.0 | 0.0 | 0.00 | 0.00 | 0.00 | 47 | 1018.7 |
| 20260509192027 | 47 | 203 | 0.0 | 0.0 | 0.00 | 0.00 | 0.00 | 46 | 1018.7 |
| 20260509191546 | 48 | 203 | 0.0 | 0.0 | 0.00 | 0.00 | 0.00 | 46 | 1018.7 |
| 20260509191033 | 48 | 203 | 0.0 | 0.0 | 0.00 | 0.00 | 0.00 | 45 | 1018.7 |
| 20260509190524 | 49 | 203 | 0.0 | 0.0 | 0.00 | 0.00 | 0.00 | 44 | 1018.7 |
| 20260509190047 | 49 | 203 | 0.0 | 0.0 | 0.00 | 0.00 | 0.00 | 43 | 1018.7 |
| 20260509185537 | 50 | 203 | 0.0 | 0.0 | 0.00 | 0.00 | 0.00 | 43 | 1018.7 |
| 20260509185058 | 50 | 203 | 0.0 | 0.0 | 0.00 | 0.00 | 0.00 | 43 | 1018.7 |
| 20260509184526 | 51 | 203 | 0.0 | 0.0 | 0.00 | 0.00 | 0.00 | 42 | 1018.6 |
| 20260509184025 | 51 | 203 | 0.0 | 0.0 | 0.00 | 0.00 | 0.00 | 41 | 1018.6 |
| 20260509183529 | 51 | 203 | 0.0 | 0.0 | 0.00 | 0.00 | 0.00 | 41 | 1018.6 |
| 20260509183027 | 52 | 203 | 0.0 | 0.0 | 0.00 | 0.00 | 0.00 | 40 | 1018.6 |
| 20260509182535 | 52 | 203 | 0.0 | 0.0 | 0.00 | 0.00 | 0.00 | 39 | 1018.6 |
| 20260509182022 | 53 | 203 | 0.0 | 0.0 | 0.00 | 0.00 | 0.00 | 39 | 1018.6 |
| 20260509181541 | 53 | 203 | 0.0 | 0.0 | 0.00 | 0.00 | 0.00 | 38 | 1018.6 |
| 20260509181027 | 53 | 203 | 0.0 | 0.0 | 0.00 | 0.00 | 0.00 | 37 | 1018.5 |
| 20260509180531 | 54 | 203 | 0.0 | 0.0 | 0.00 | 0.00 | 0.00 | 36 | 1018.6 |
| 20260509180039 | 54 | 203 | 1.0 | 0.0 | 0.00 | 0.00 | 0.00 | 34 | 1018.6 |
| 20260509175525 | 55 | 203 | 0.0 | 0.0 | 0.00 | 0.00 | 0.00 | 35 | 1018.5 |
| 20260509175041 | 55 | 203 | 1.0 | 0.0 | 0.00 | 0.00 | 0.00 | 35 | 1018.5 |
| 20260509174532 | 55 | 203 | 1.0 | 0.0 | 0.00 | 0.00 | 0.00 | 35 | 1018.3 |
| 20260509174023 | 56 | 203 | 1.0 | 0.0 | 0.00 | 0.00 | 0.00 | 35 | 1018.3 |
| 20260509173531 | 56 | 203 | 1.0 | 0.0 | 0.00 | 0.00 | 0.00 | 34 | 1018.3 |
| 20260509173052 | 56 | 203 | 1.0 | 0.0 | 0.00 | 0.00 | 0.00 | 32 | 1018.3 |
| 20260509172536 | 57 | 203 | 1.0 | 0.0 | 0.00 | 0.00 | 0.00 | 33 | 1018.3 |
| 20260509172057 | 57 | 203 | 1.0 | 0.0 | 0.00 | 0.00 | 0.00 | 32 | 1018.3 |
| 20260509171536 | 57 | 204 | 2.0 | 0.0 | 0.00 | 0.00 | 0.00 | 33 | 1018.3 |
| 20260509171034 | 58 | 206 | 2.0 | 0.0 | 0.00 | 0.00 | 0.00 | 32 | 1018.4 |
| 20260509170521 | 58 | 220 | 1.0 | 0.0 | 0.00 | 0.00 | 0.00 | 33 | 1018.4 |
| 20260509170025 | 58 | 275 | 1.0 | 0.0 | 0.00 | 0.00 | 0.00 | 33 | 1018.6 |
| 20260509165541 | 59 | 278 | 2.0 | 0.0 | 0.00 | 0.00 | 0.00 | 32 | 1018.6 |
| 20260509165027 | 59 | 274 | 2.0 | 0.0 | 0.00 | 0.00 | 0.00 | 28 | 1018.6 |
| 20260509164606 | 59 | 258 | 2.0 | 0.0 | 0.00 | 0.00 | 0.00 | 31 | 1018.5 |
| 20260509164047 | 60 | 266 | 3.0 | 0.0 | 0.00 | 0.00 | 0.00 | 32 | 1018.5 |
| 20260509163531 | 60 | 248 | 2.0 | 0.0 | 0.00 | 0.00 | 0.00 | 30 | 1018.5 |
| 20260509163043 | 60 | 206 | 2.0 | 0.0 | 0.00 | 0.00 | 0.00 | 29 | 1018.6 |
| 20260509162536 | 60 | 209 | 1.0 | 0.0 | 0.00 | 0.00 | 0.00 | 31 | 1018.6 |
| 20260509162042 | 60 | 206 | 1.0 | 0.0 | 0.00 | 0.00 | 0.00 | 30 | 1018.6 |
| 20260509161528 | 60 | 206 | 1.0 | 0.0 | 0.00 | 0.00 | 0.00 | 27 | 1018.6 |
| 20260509161044 | 60 | 200 | 1.0 | 0.0 | 0.00 | 0.00 | 0.00 | 31 | 1018.6 |
| 20260509160533 | 61 | 200 | 2.0 | 0.0 | 0.00 | 0.00 | 0.00 | 29 | 1018.6 |
| 20260509160105 | 61 | 200 | 3.0 | 0.0 | 0.00 | 0.00 | 0.00 | 28 | 1018.6 |
| 20260509155530 | 61 | 193 | 3.0 | 0.0 | 0.00 | 0.00 | 0.00 | 27 | 1018.8 |
| 20260509155034 | 62 | 192 | 3.0 | 0.0 | 0.00 | 0.00 | 0.00 | 27 | 1018.8 |
| 20260509154545 | 62 | 178 | 3.0 | 0.0 | 0.00 | 0.00 | 0.00 | 28 | 1018.7 |
| 20260509154030 | 62 | 149 | 2.0 | 0.0 | 0.00 | 0.00 | 0.00 | 28 | 1018.9 |
| 20260509153536 | 62 | 163 | 2.0 | 0.0 | 0.00 | 0.00 | 0.00 | 27 | 1018.9 |
| 20260509153025 | 62 | 172 | 1.0 | 0.0 | 0.00 | 0.00 | 0.00 | 27 | 1019.1 |
| 20260509152541 | 61 | 189 | 1.0 | 0.0 | 0.00 | 0.00 | 0.00 | 26 | 1019.1 |
| 20260509152026 | 61 | 203 | 2.0 | 0.0 | 0.00 | 0.00 | 0.00 | 29 | 1019.1 |
| 20260509151529 | 61 | 206 | 3.0 | 0.0 | 0.00 | 0.00 | 0.00 | 27 | 1019.2 |
| 20260509151054 | 61 | 145 | 2.0 | 0.0 | 0.00 | 0.00 | 0.00 | 30 | 1019.2 |
| 20260509150536 | 61 | 162 | 1.0 | 0.0 | 0.00 | 0.00 | 0.00 | 27 | 1019.2 |
| 20260509150026 | 61 | 163 | 2.0 | 0.0 | 0.00 | 0.00 | 0.00 | 25 | 1019.6 |
| 20260509145533 | 61 | 163 | 3.0 | 0.0 | 0.00 | 0.00 | 0.00 | 26 | 1019.6 |
| 20260509145036 | 61 | 91 | 4.0 | 0.0 | 0.00 | 0.00 | 0.00 | 27 | 1019.6 |
| 20260509144531 | 61 | 138 | 4.0 | 0.0 | 0.00 | 0.00 | 0.00 | 27 | 1019.7 |
| 20260509144035 | 61 | 132 | 4.0 | 0.0 | 0.00 | 0.00 | 0.00 | 28 | 1019.7 |
| 20260509143522 | 61 | 141 | 4.0 | 0.0 | 0.00 | 0.00 | 0.00 | 26 | 1019.7 |
| 20260509143037 | 61 | 165 | 4.0 | 0.0 | 0.00 | 0.00 | 0.00 | 26 | 1019.7 |
| 20260509142540 | 62 | 163 | 5.0 | 0.0 | 0.00 | 0.00 | 0.00 | 28 | 1019.8 |
| 20260509142029 | 62 | 180 | 5.0 | 0.0 | 0.00 | 0.00 | 0.00 | 26 | 1019.8 |
| 20260509141531 | 62 | 90 | 4.0 | 0.0 | 0.00 | 0.00 | 0.00 | 26 | 1020.2 |
| 20260509141049 | 62 | 138 | 3.0 | 0.0 | 0.00 | 0.00 | 0.00 | 26 | 1020.2 |
| 20260509140532 | 62 | 145 | 3.0 | 0.0 | 0.00 | 0.00 | 0.00 | 27 | 1020.2 |
| 20260509140032 | 62 | 152 | 4.0 | 0.0 | 0.00 | 0.00 | 0.00 | 27 | 1020.2 |
| 20260509135547 | 63 | 144 | 5.0 | 0.0 | 0.00 | 0.00 | 0.00 | 24 | 1020.2 |
| 20260509135030 | 64 | 214 | 3.0 | 0.0 | 0.00 | 0.00 | 0.00 | 26 | 1020.2 |
| 20260509134529 | 64 | 124 | 3.0 | 0.0 | 0.00 | 0.00 | 0.00 | 27 | 1020.3 |
| 20260509134035 | 64 | 163 | 3.0 | 0.0 | 0.00 | 0.00 | 0.00 | 24 | 1020.3 |
| 20260509133552 | 64 | 121 | 2.0 | 0.0 | 0.00 | 0.00 | 0.00 | 24 | 1020.3 |
| 20260509133047 | 64 | 178 | 3.0 | 0.0 | 0.00 | 0.00 | 0.00 | 25 | 1020.3 |
| 20260509132535 | 65 | 179 | 3.0 | 0.0 | 0.00 | 0.00 | 0.00 | 26 | 1020.7 |
| 20260509132038 | 65 | 138 | 4.0 | 0.0 | 0.00 | 0.00 | 0.00 | 24 | 1020.7 |
| 20260509131548 | 65 | 134 | 4.0 | 0.0 | 0.00 | 0.00 | 0.00 | 23 | 1020.8 |
| 20260509131027 | 65 | 189 | 4.0 | 0.0 | 0.00 | 0.00 | 0.00 | 24 | 1020.8 |
| 20260509130543 | 65 | 175 | 4.0 | 0.0 | 0.00 | 0.00 | 0.00 | 25 | 1020.8 |
| 20260509130059 | 65 | 173 | 3.0 | 0.0 | 0.00 | 0.00 | 0.00 | 24 | 1020.8 |
| 20260509125540 | 65 | 183 | 3.0 | 0.0 | 0.00 | 0.00 | 0.00 | 22 | 1021.0 |
| 20260509125024 | 65 | 213 | 4.0 | 0.0 | 0.00 | 0.00 | 0.00 | 21 | 1021.0 |
| 20260509124524 | 65 | 170 | 4.0 | 0.0 | 0.00 | 0.00 | 0.00 | 24 | 1021.1 |
| 20260509124039 | 65 | 155 | 4.0 | 0.0 | 0.00 | 0.00 | 0.00 | 27 | 1021.1 |
| 20260509123555 | 65 | 190 | 4.0 | 0.0 | 0.00 | 0.00 | 0.00 | 24 | 1021.1 |
| 20260509123036 | 66 | 190 | 4.0 | 0.0 | 0.00 | 0.00 | 0.00 | 21 | 1021.1 |
| 20260509122521 | 66 | 282 | 5.0 | 0.0 | 0.00 | 0.00 | 0.00 | 22 | 1021.3 |
| 20260509122036 | 66 | 199 | 5.0 | 0.0 | 0.00 | 0.00 | 0.00 | 26 | 1021.3 |
| 20260509121550 | 66 | 185 | 3.0 | 0.0 | 0.00 | 0.00 | 0.00 | 23 | 1021.5 |
| 20260509121048 | 65 | 161 | 3.0 | 0.0 | 0.00 | 0.00 | 0.00 | 25 | 1021.5 |
| 20260509120559 | 65 | 173 | 3.0 | 0.0 | 0.00 | 0.00 | 0.00 | 23 | 1021.5 |
| 20260509120020 | 65 | 227 | 3.0 | 0.0 | 0.00 | 0.00 | 0.00 | 25 | 1021.6 |
| 20260509115527 | 64 | 138 | 5.0 | 0.0 | 0.00 | 0.00 | 0.00 | 25 | 1021.6 |
| 20260509115027 | 64 | 138 | 5.0 | 0.0 | 0.00 | 0.00 | 0.00 | 24 | 1021.6 |
| 20260509114531 | 64 | 163 | 3.0 | 0.0 | 0.00 | 0.00 | 0.00 | 27 | 1021.8 |
| 20260509114020 | 64 | 186 | 3.0 | 0.0 | 0.00 | 0.00 | 0.00 | 25 | 1021.8 |
| 20260509113526 | 64 | 130 | 5.0 | 0.0 | 0.00 | 0.00 | 0.00 | 24 | 1021.8 |
| 20260509113024 | 64 | 264 | 5.0 | 0.0 | 0.00 | 0.00 | 0.00 | 27 | 1021.8 |
| 20260509112527 | 64 | 135 | 3.0 | 0.0 | 0.00 | 0.00 | 0.00 | 25 | 1021.8 |
| 20260509112021 | 64 | 175 | 3.0 | 0.0 | 0.00 | 0.00 | 0.00 | 23 | 1021.8 |
| 20260509111532 | 64 | 186 | 3.0 | 0.0 | 0.00 | 0.00 | 0.00 | 24 | 1021.9 |
| 20260509111030 | 64 | 175 | 2.0 | 0.0 | 0.00 | 0.00 | 0.00 | 28 | 1021.9 |
| 20260509110535 | 64 | 199 | 3.0 | 0.0 | 0.00 | 0.00 | 0.00 | 23 | 1021.9 |
| 20260509110026 | 63 | 138 | 4.0 | 0.0 | 0.00 | 0.00 | 0.00 | 24 | 1022.2 |
| 20260509105521 | 64 | 124 | 5.0 | 0.0 | 0.00 | 0.00 | 0.00 | 22 | 1022.2 |
| 20260509105030 | 64 | 180 | 4.0 | 0.0 | 0.00 | 0.00 | 0.00 | 26 | 1022.2 |
| 20260509104544 | 64 | 148 | 3.0 | 0.0 | 0.00 | 0.00 | 0.00 | 22 | 1022.2 |
| 20260509104027 | 64 | 185 | 4.0 | 0.0 | 0.00 | 0.00 | 0.00 | 24 | 1022.3 |
| 20260509103535 | 64 | 173 | 3.0 | 0.0 | 0.00 | 0.00 | 0.00 | 26 | 1022.3 |
| 20260509103056 | 64 | 233 | 3.0 | 0.0 | 0.00 | 0.00 | 0.00 | 26 | 1022.3 |
| 20260509102541 | 64 | 187 | 3.0 | 0.0 | 0.00 | 0.00 | 0.00 | 22 | 1022.4 |
| 20260509102028 | 64 | 179 | 3.0 | 0.0 | 0.00 | 0.00 | 0.00 | 27 | 1022.4 |
| 20260509101535 | 64 | 179 | 3.0 | 0.0 | 0.00 | 0.00 | 0.00 | 22 | 1022.4 |
| 20260509101038 | 64 | 193 | 2.0 | 0.0 | 0.00 | 0.00 | 0.00 | 27 | 1022.7 |
| 20260509100521 | 63 | 189 | 3.0 | 0.0 | 0.00 | 0.00 | 0.00 | 23 | 1022.7 |
| 20260509100045 | 63 | 173 | 4.0 | 0.0 | 0.00 | 0.00 | 0.00 | 25 | 1022.7 |
| 20260509095529 | 63 | 178 | 4.0 | 0.0 | 0.00 | 0.00 | 0.00 | 21 | 1022.7 |
| 20260509095036 | 63 | 206 | 4.0 | 0.0 | 0.00 | 0.00 | 0.00 | 26 | 1022.7 |
| 20260509094522 | 63 | 166 | 3.0 | 0.0 | 0.00 | 0.00 | 0.00 | 23 | 1022.8 |
| 20260509094028 | 63 | 186 | 4.0 | 0.0 | 0.00 | 0.00 | 0.00 | 22 | 1022.8 |
| 20260509093546 | 63 | 194 | 4.0 | 0.0 | 0.00 | 0.00 | 0.00 | 23 | 1022.8 |
| 20260509093107 | 63 | 161 | 2.0 | 0.0 | 0.00 | 0.00 | 0.00 | 27 | 1022.9 |
| 20260509093030 | 63 | 161 | 2.0 | 0.0 | 0.00 | 0.00 | 0.00 | 27 | 1022.9 |
| 20260509092531 | 63 | 185 | 3.0 | 0.0 | 0.00 | 0.00 | 0.00 | 26 | 1022.9 |
| 20260509092037 | 62 | 194 | 4.0 | 0.0 | 0.00 | 0.00 | 0.00 | 25 | 1022.9 |
| 20260509091523 | 62 | 163 | 4.0 | 0.0 | 0.00 | 0.00 | 0.00 | 24 | 1022.9 |
| 20260509091101 | 62 | 125 | 4.0 | 0.0 | 0.00 | 0.00 | 0.00 | 25 | 1022.9 |
| 20260509090529 | 63 | 138 | 3.0 | 0.0 | 0.00 | 0.00 | 0.00 | 25 | 1022.9 |
| 20260509090040 | 63 | 155 | 2.0 | 0.0 | 0.00 | 0.00 | 0.00 | 24 | 1022.9 |
| 20260509085548 | 63 | 138 | 3.0 | 0.0 | 0.00 | 0.00 | 0.00 | 26 | 1022.9 |
| 20260509085045 | 62 | 144 | 4.0 | 0.0 | 0.00 | 0.00 | 0.00 | 25 | 1022.9 |
| 20260509084530 | 62 | 144 | 3.0 | 0.0 | 0.00 | 0.00 | 0.00 | 25 | 1022.9 |
| 20260509084035 | 63 | 166 | 4.0 | 0.0 | 0.00 | 0.00 | 0.00 | 27 | 1022.9 |
| 20260509083524 | 62 | 168 | 4.0 | 0.0 | 0.00 | 0.00 | 0.00 | 26 | 1022.9 |
| 20260509083026 | 62 | 113 | 3.0 | 0.0 | 0.00 | 0.00 | 0.00 | 23 | 1023.1 |
| 20260509082527 | 62 | 141 | 2.0 | 0.0 | 0.00 | 0.00 | 0.00 | 27 | 1023.1 |
| 20260509082030 | 62 | 132 | 3.0 | 0.0 | 0.00 | 0.00 | 0.00 | 28 | 1023.1 |
| 20260509081527 | 61 | 139 | 3.0 | 0.0 | 0.00 | 0.00 | 0.00 | 24 | 1023.2 |
| 20260509081052 | 61 | 183 | 3.0 | 0.0 | 0.00 | 0.00 | 0.00 | 30 | 1023.2 |
| 20260509080547 | 60 | 107 | 4.0 | 0.0 | 0.00 | 0.00 | 0.00 | 31 | 1023.2 |
| 20260509080029 | 60 | 113 | 4.0 | 0.0 | 0.00 | 0.00 | 0.00 | 28 | 1023.3 |
| 20260509075536 | 60 | 152 | 4.0 | 0.0 | 0.00 | 0.00 | 0.00 | 32 | 1023.3 |
| 20260509075053 | 60 | 138 | 3.0 | 0.0 | 0.00 | 0.00 | 0.00 | 27 | 1023.3 |
| 20260509074539 | 60 | 178 | 3.0 | 0.0 | 0.00 | 0.00 | 0.00 | 32 | 1023.3 |
| 20260509074056 | 59 | 137 | 3.0 | 0.0 | 0.00 | 0.00 | 0.00 | 28 | 1023.4 |
| 20260509073522 | 59 | 132 | 3.0 | 0.0 | 0.00 | 0.00 | 0.00 | 30 | 1023.4 |
| 20260509073035 | 60 | 161 | 2.0 | 0.0 | 0.00 | 0.00 | 0.00 | 27 | 1023.4 |
| 20260509072537 | 60 | 138 | 1.0 | 0.0 | 0.00 | 0.00 | 0.00 | 30 | 1023.4 |
| 20260509072021 | 59 | 138 | 2.0 | 0.0 | 0.00 | 0.00 | 0.00 | 31 | 1023.4 |
| 20260509071538 | 59 | 138 | 3.0 | 0.0 | 0.00 | 0.00 | 0.00 | 29 | 1023.4 |
| 20260509071045 | 59 | 161 | 3.0 | 0.0 | 0.00 | 0.00 | 0.00 | 29 | 1023.4 |
| 20260509070530 | 58 | 196 | 2.0 | 0.0 | 0.00 | 0.00 | 0.00 | 31 | 1023.4 |
| 20260509070027 | 58 | 196 | 2.0 | 0.0 | 0.00 | 0.00 | 0.00 | 32 | 1023.5 |
| 20260509065542 | 57 | 196 | 2.0 | 0.0 | 0.00 | 0.00 | 0.00 | 33 | 1023.5 |
| 20260509065027 | 57 | 196 | 1.0 | 0.0 | 0.00 | 0.00 | 0.00 | 33 | 1023.5 |
| 20260509064527 | 56 | 196 | 1.0 | 0.0 | 0.00 | 0.00 | 0.00 | 35 | 1023.6 |
| 20260509064041 | 56 | 196 | 2.0 | 0.0 | 0.00 | 0.00 | 0.00 | 35 | 1023.6 |
| 20260509063526 | 56 | 196 | 2.0 | 0.0 | 0.00 | 0.00 | 0.00 | 36 | 1023.6 |
| 20260509063030 | 56 | 204 | 1.0 | 0.0 | 0.00 | 0.00 | 0.00 | 34 | 1023.7 |
| 20260509062551 | 56 | 206 | 1.0 | 0.0 | 0.00 | 0.00 | 0.00 | 37 | 1023.7 |
| 20260509062058 | 56 | 206 | 1.0 | 0.0 | 0.00 | 0.00 | 0.00 | 39 | 1023.7 |
| 20260509061529 | 55 | 206 | 1.0 | 0.0 | 0.00 | 0.00 | 0.00 | 38 | 1023.8 |
| 20260509061034 | 55 | 206 | 1.0 | 0.0 | 0.00 | 0.00 | 0.00 | 36 | 1023.8 |